Wind_Speed
31 32 33 33 34 35 35 35 34 34 34 34 34 34 35 35 35 36 37 37 36 35 35 34 34 34 34 36 37 38 39 40 40 41 42 43 44 44 45 45 45 45 44 43 42 42 42 43 44 45 46 47 48 48 48 48 49 49 49 49 49 50 51 52 53 55 57 56 56 55 54 53 52 51 49 48 47 47 47 46 46 46 46 46 47
32 33 34 35 35 36 36 36 36 37 37 37 37 37 38 38 38 39 40 40 40 39 38 38 37 37 37 38 38 39 40 42 42 43 44 44 45 46 47 47 47 47 47 47 46 45 44 44 44 45 46 48 48 49 49 49 49 50 50 50 51 51 51 51 52 54 55 56 57 57 57 56 55 54 52 51 50 50 49 49 49 48 48 48 48
33 34 35 35 36 37 37 38 38 39 39 40 40 40 41 41 42 43 43 43 43 42 42 42 41 40 40 40 40 41 42 44 45 46 46 46 47 48 48 49 49 49 49 49 49 48 47 46 46 46 46 47 48 49 49 49 48 49 50 51 51 52 52 52 52 53 54 55 56 57 57 57 57 56 55 54 54 53 52 51 51 50 50 50 50
34 35 36 36 36 38 38 40 41 41 42 43 43 43 44 44 43 44 44 45 45 44 44 44 44 42 42 42 42 43 44 46 47 48 49 49 50 50 50 51 51 51 50 50 50 50 50 49 48 47 47 47 48 49 49 50 49 49 50 50 51 52 53 53 53 54 54 55 56 56 57 57 57 57 56 56 56 55 55 54 53 53 52 52 52
35 37 37 38 39 40 41 42 43 43 44 44 44 44 43 42 42 41 41 41 43 45 45 45 45 44 44 45 46 46 47 48 49 50 51 51 52 52 52 52 53 53 52 51 51 51 50 50 50 49 49 48 48 48 49 50 50 51 51 51 51 52 52 53 54 54 55 56 56 56 57 57 57 57 57 57 57 57 56 56 56 55 54 54 54
38 40 41 42 43 43 44 44 45 45 44 43 42 42 41 40 39 38 38 39 41 45 47 46 45 45 45 47 48 49 50 51 52 52 53 53 54 54 54 54 54 54 53 53 52 52 51 51 50 50 50 50 50 50 50 50 51 51 52 52 53 53 53 54 54 55 56 57 57 58 58 58 58 57 57 57 57 58 58 57 57 57 57 56 56
42 43 45 46 47 48 47 47 46 45 44 42 41 40 39 38 38 38 38 39 41 44 48 50 48 47 46 48 49 50 52 53 54 55 56 56 56 56 56 56 56 55 55 54 54 53 53 52 52 52 53 53 53 54 54 54 54 54 54 54 55 55 55 55 56 56 57 58 58 59 59 60 60 59 59 58 57 57 58 59 59 59 58 58 58
46 47 48 49 50 51 51 49 48 47 45 43 42 41 40 39 39 39 40 41 42 44 48 52 53 51 49 49 50 51 53 54 56 57 59 59 59 58 58 59 58 58 57 56 56 56 56 56 56 56 56 57 57 58 58 59 59 59 59 59 59 59 59 58 58 59 59 59 60 60 61 61 62 61 61 61 60 58 57 59 61 61 61 60 60
49 50 51 51 51 51 52 53 52 49 47 45 44 43 43 42 42 42 43 43 44 45 47 51 55 55 53 51 52 53 54 56 57 59 61 61 62 62 61 61 61 61 60 60 59 59 59 59 60 60 60 61 61 62 62 63 64 64 64 64 64 63 63 63 62 63 63 63 63 63 63 63 63 64 64 64 63 61 59 58 60 62 63 62 62
51 52 51 51 51 52 54 55 55 53 50 48 47 46 46 45 45 45 46 46 47 47 49 51 54 57 57 55 55 56 57 58 60 61 62 63 64 64 64 64 64 64 64 64 64 63 63 64 64 65 65 66 66 67 67 67 68 69 69 69 68 68 67 67 66 67 67 67 67 67 66 66 66 66 66 66 66 66 63 60 60 62 63 63 63
52 52 53 53 53 54 55 57 58 56 54 52 51 50 49 48 48 48 48 49 49 50 51 53 55 57 59 59 59 59 59 60 62 63 64 65 65 66 66 67 67 68 68 68 68 68 68 68 69 69 69 70 70 71 72 73 73 73 73 73 73 72 72 71 70 70 70 70 70 71 71 70 70 69 69 69 69 69 68 66 64 63 63 62 64
53 54 55 56 56 56 57 58 59 58 57 55 53 52 51 51 50 50 50 50 51 52 53 55 57 59 60 62 62 62 63 63 64 65 67 67 68 68 69 69 69 70 71 71 72 72 73 74 75 75 76 76 77 78 79 79 79 78 78 78 77 77 76 76 75 75 74 73 73 73 73 73 74 73 73 72 72 72 72 70 69 68 66 64 64
55 56 56 58 59 59 60 60 59 58 58 57 55 54 53 53 52 52 52 52 52 53 55 57 59 61 62 63 64 65 65 66 66 67 69 71 72 72 72 72 73 73 74 74 76 77 78 80 82 83 83 83 83 83 83 83 83 83 82 82 81 81 80 80 79 78 78 77 77 76 76 76 76 76 76 76 75 75 75 74 73 72 70 68 67
57 58 59 60 61 62 62 61 59 58 58 58 57 56 55 54 54 53 53 53 54 55 56 58 60 62 64 65 66 67 67 68 70 71 73 74 75 76 76 76 76 77 78 79 80 81 83 84 85 86 86 86 86 85 85 85 86 86 86 85 84 84 83 83 82 81 80 80 79 79 79 78 78 78 78 78 78 78 78 78 77 76 74 73 72
60 62 62 63 63 63 63 61 60 59 58 58 58 57 57 57 56 56 56 55 56 57 58 59 61 63 66 68 69 70 70 70 72 74 76 77 78 79 79 79 79 79 80 81 82 84 85 87 87 87 87 87 86 85 84 84 84 84 85 85 85 85 85 85 85 84 82 81 81 80 80 80 80 80 80 80 80 80 80 80 81 80 78 76 75
63 64 65 65 64 64 63 61 60 60 59 59 59 59 59 59 59 58 58 58 58 59 60 61 62 64 67 69 72 73 74 74 74 75 77 79 81 81 82 82 82 81 82 83 84 85 87 88 87 87 88 88 87 86 85 84 83 82 81 81 81 81 82 83 83 84 83 82 82 81 81 80 80 81 81 81 82 82 82 82 82 83 83 81 79
65 65 65 65 64 63 62 62 61 60 60 60 60 60 61 62 62 61 61 61 60 61 62 63 64 66 68 71 74 76 78 78 78 78 80 81 83 84 85 85 85 84 84 84 85 87 88 87 85 84 84 85 85 86 86 86 85 84 83 82 80 79 78 78 79 80 81 81 82 82 82 82 82 81 81 82 82 83 83 84 84 85 86 86 84
65 64 64 64 63 63 62 61 61 60 60 61 61 62 64 64 64 64 63 63 63 63 64 65 66 68 70 72 75 78 80 81 82 83 83 83 83 85 86 86 86 85 84 83 84 85 86 85 85 84 84 83 83 84 84 85 86 87 88 87 85 83 81 80 80 79 80 80 81 81 82 83 84 84 83 83 83 83 84 85 86 86 87 88 89
64 64 64 63 62 62 62 62 61 61 62 63 64 65 66 66 66 65 65 64 65 65 64 65 66 67 69 70 72 74 76 78 80 82 82 81 81 82 83 84 85 85 84 84 85 85 86 87 88 89 89 88 88 88 88 88 89 90 90 90 90 89 88 87 87 86 85 85 84 83 83 84 85 85 85 86 86 86 85 85 86 87 88 89 90
64 64 63 63 62 62 62 62 63 63 64 65 65 65 65 64 64 63 63 63 65 66 66 66 68 69 70 71 72 73 74 76 79 81 83 84 83 83 83 84 85 86 87 87 88 88 89 90 91 92 92 92 92 92 93 93 93 93 93 94 94 95 94 94 93 93 92 91 90 89 88 87 87 87 87 87 87 88 88 88 88 88 89 90 91
64 63 63 63 63 63 63 64 65 65 65 65 64 64 63 63 62 62 63 65 67 70 71 71 72 74 75 76 77 78 79 80 82 84 85 86 86 86 86 86 87 87 88 89 90 90 91 91 91 92 93 94 95 96 97 97 97 97 97 97 98 98 98 98 98 97 97 96 95 94 92 92 92 91 90 90 90 90 90 90 91 91 90 91 92
64 64 64 64 65 65 66 66 67 67 67 67 66 66 66 65 66 67 68 70 72 74 75 75 76 77 78 79 80 81 82 82 83 85 85 86 87 87 88 89 90 91 92 93 94 94 95 95 95 96 97 98 99 99 99 98 98 98 99 99 100 100 101 101 100 100 100 99 98 97 96 95 95 94 93 93 93 93 93 93 93 93 93 93 94
65 65 65 65 66 67 67 68 68 69 68 68 68 68 68 69 71 72 73 74 76 77 78 79 80 80 81 82 83 84 85 85 86 87 88 89 90 91 91 92 93 95 96 96 97 97 98 98 99 99 99 100 100 99 99 99 99 99 99 100 100 101 102 102 103 103 102 102 101 100 99 99 99 98 96 96 95 95 95 95 95 95 95 95 96
65 66 66 67 68 68 68 69 69 69 69 69 70 71 73 74 74 75 76 77 79 80 80 81 82 83 84 85 85 86 87 88 88 89 90 91 92 93 93 94 95 95 96 97 98 98 98 99 99 99 100 100 100 100 100 101 101 101 101 101 101 102 102 103 104 104 105 105 105 104 103 102 102 102 100 100 99 99 98 98 97 97 97 97 98
67 67 68 68 68 68 68 69 70 71 71 72 73 74 75 75 75 76 77 78 79 80 81 82 83 84 85 86 86 87 88 89 90 91 92 93 94 94 95 95 96 96 96 97 98 98 98 99 99 100 101 101 102 102 102 103 103 103 103 103 103 103 103 103 104 104 105 106 106 106 106 106 106 105 104 103 104 104 103 102 101 100 99 99 99
67 67 67 67 67 68 69 70 71 72 72 73 73 74 74 75 75 76 77 78 79 80 82 83 84 85 86 87 88 89 90 91 92 93 94 94 95 95 96 96 96 97 97 98 98 99 99 100 100 101 101 102 102 103 103 104 104 105 105 105 105 105 105 105 105 105 106 106 107 108 108 108 108 108 108 107 107 107 107 107 106 104 103 102 102
67 67 68 68 68 69 69 70 71 71 72 72 72 73 74 75 76 77 78 79 80 82 83 85 86 87 88 89 90 91 92 93 93 94 94 95 95 95 96 96 96 97 97 98 98 98 99 99 99 100 100 100 101 102 102 103 104 105 105 105 105 106 106 106 106 106 107 107 108 109 109 110 111 111 111 111 111 111 111 110 110 109 107 106 105
67 68 68 68 68 68 69 69 70 70 71 71 72 74 75 76 77 78 79 80 82 83 85 86 87 88 90 90 91 92 92 93 93 94 94 94 95 95 95 95 95 95 95 95 95 95 95 95 95 95 96 96 97 97 98 99 100 101 102 102 103 103 104 104 104 105 105 105 106 107 108 110 111 112 113 113 113 114 114 113 113 112 111 110 109
67 67 67 67 67 68 69 69 70 70 71 72 74 75 76 77 78 79 80 82 83 85 86 87 88 89 90 91 91 92 92 92 93 93 93 92 92 92 91 90 90 89 88 88 87 87 87 87 87 87 88 88 89 90 91 92 93 94 95 96 96 97 97 98 99 99 99 100 101 103 104 105 107 109 111 112 114 115 116 116 116 115 115 114 113
65 65 66 66 67 68 68 69 69 70 72 73 74 75 76 78 79 80 82 84 85 86 87 88 88 89 90 90 90 90 90 90 89 88 87 86 84 83 81 80 79 78 77 77 77 78 78 79 79 79 79 80 81 82 83 85 86 88 89 90 90 90 91 92 93 93 93 93 94 95 97 98 100 102 104 107 109 112 114 117 118 118 118 117 116
64 65 65 66 67 67 68 69 70 71 72 73 75 76 78 79 81 83 84 85 86 87 87 88 88 88 88 88 87 86 85 83 82 80 78 76 74 72 71 70 70 69 70 70 70 71 72 73 73 74 74 75 76 77 79 80 81 83 84 85 86 86 87 87 88 88 89 88 88 89 90 92 93 95 98 100 102 105 108 111 114 117 119 120 120
64 65 66 66 67 68 69 69 70 71 73 75 77 78 80 82 83 84 85 86 86 86 87 87 87 86 85 84 82 80 78 75 73 71 69 68 67 66 66 66 66 67 67 68 68 69 70 71 72 72 73 74 75 76 77 78 79 80 81 82 82 82 83 83 83 84 85 85 86 86 87 87 88 90 91 94 95 98 100 103 106 110 113 116 118
65 65 66 67 68 69 70 71 72 74 75 77 79 81 82 83 84 84 85 85 86 86 85 85 83 82 80 78 75 73 71 69 67 66 65 64 64 65 65 65 66 66 67 68 69 70 71 72 72 72 72 73 73 74 75 75 76 76 77 78 78 78 78 78 78 79 80 81 82 83 83 83 84 85 86 88 89 90 92 95 97 100 103 107 110
65 66 67 68 69 71 72 73 75 76 78 80 82 83 83 84 84 84 85 84 84 83 82 80 78 76 73 71 69 67 65 64 63 63 63 63 64 64 65 66 67 67 68 69 69 70 70 71 71 71 71 70 70 71 71 72 73 73 74 75 75 75 75 75 75 76 77 77 78 79 79 78 79 80 80 81 83 84 86 88 90 92 94 97 99
67 68 69 70 71 72 74 75 77 78 80 81 83 83 83 84 84 83 83 81 80 78 76 73 71 69 67 66 64 63 62 62 62 62 62 63 64 65 67 68 68 69 69 69 70 70 70 69 69 69 69 68 69 70 71 71 72 73 74 74 74 74 74 74 74 74 74 74 75 75 75 75 75 75 76 77 78 79 80 82 83 85 87 89 91
68 69 70 71 73 74 75 76 78 80 81 82 83 83 83 83 82 80 78 76 74 71 69 67 65 64 63 62 61 61 61 61 62 63 64 65 66 67 68 69 69 70 71 71 70 70 69 69 69 69 68 68 68 70 71 71 72 72 72 72 72 71 71 71 71 71 70 70 70 71 70 70 70 70 71 72 74 75 76 77 78 79 81 83 84
70 71 72 73 74 75 76 78 79 80 81 81 81 81 81 80 78 75 72 70 67 65 63 62 61 61 61 61 61 61 61 62 63 64 65 66 67 68 70 70 71 70 70 70 69 69 68 68 68 69 69 68 68 69 70 69 69 69 69 68 68 68 68 67 67 66 65 64 63 63 63 62 61 61 62 63 65 67 69 70 71 73 74 76 78
72 72 73 74 75 76 77 78 79 80 79 79 79 78 76 74 72 69 66 64 62 60 59 59 59 59 60 61 61 62 63 64 65 65 66 67 69 70 71 71 71 70 69 68 68 67 67 68 68 68 68 67 66 66 66 65 65 64 63 62 63 64 63 62 61 60 58 57 55 55 54 53 52 51 52 53 55 58 59 61 63 65 67 68 70
72 73 74 75 76 77 77 78 77 77 76 75 74 72 70 68 66 63 61 60 59 58 58 58 59 60 61 61 62 63 64 65 66 66 68 68 69 70 70 70 69 68 67 67 67 67 67 67 67 67 66 65 63 62 62 60 57 56 56 57 59 60 59 58 57 54 52 51 50 49 49 48 48 48 50 51 54 57 58 60 61 63 64 65 67
73 74 75 76 76 76 75 74 73 72 71 69 68 66 64 62 60 59 58 57 57 57 57 58 59 60 61 62 63 64 65 66 66 67 68 69 70 69 69 68 67 67 67 67 67 67 66 66 65 64 62 62 60 58 56 53 51 51 52 54 54 55 54 53 52 50 48 47 47 47 47 48 49 50 52 54 57 60 62 63 65 66 67 68 71
74 75 75 75 74 72 71 69 67 66 64 62 61 60 59 58 57 56 56 56 56 57 57 59 60 61 62 63 64 65 66 66 67 68 68 69 69 68 67 67 67 67 67 67 67 66 65 63 62 61 59 58 56 53 50 48 48 49 49 50 50 49 49 47 46 46 45 45 46 47 48 50 52 53 55 57 59 62 65 66 67 68 69 71 73
74 74 73 72 70 67 65 63 61 59 58 57 56 56 56 55 55 55 56 56 57 57 58 59 61 62 63 64 65 66 66 67 67 68 68 67 67 67 67 67 67 67 67 66 66 65 63 61 59 57 56 54 51 48 47 47 47 47 47 47 47 46 45 44 43 44 44 45 46 48 50 52 54 55 57 59 60 63 65 67 68 69 69 71 73
72 71 70 68 65 61 58 57 55 54 54 53 53 54 54 55 55 56 56 57 57 58 59 60 61 62 63 64 65 66 66 67 67 67 67 66 66 66 67 67 67 67 66 65 64 63 61 58 56 53 51 48 46 46 46 47 47 46 46 46 45 45 44 44 43 42 43 45 46 48 50 52 53 55 56 58 60 62 63 65 66 68 69 70 72
70 68 66 62 59 55 53 51 51 52 52 52 52 53 54 55 55 56 57 57 58 59 60 61 62 62 63 64 65 66 66 67 67 66 65 65 66 66 66 66 66 66 65 64 63 61 59 56 53 49 45 43 43 44 46 46 46 46 46 46 45 45 45 44 43 42 43 44 45 46 48 50 51 53 54 56 58 60 62 63 65 67 69 70 71
67 64 61 58 54 51 49 49 50 51 52 52 53 54 55 55 56 57 58 58 59 60 60 61 62 62 63 64 65 66 66 65 65 65 65 65 65 64 64 64 64 64 64 63 61 59 56 53 50 44 40 40 41 43 44 45 46 46 46 46 46 45 45 45 44 44 44 45 45 46 47 49 51 52 54 55 57 58 60 63 65 68 70 71 71
62 60 57 54 51 49 48 49 50 51 52 53 54 55 56 57 58 58 59 59 60 60 61 61 62 62 63 64 64 64 64 64 64 64 64 64 63 63 62 62 62 62 62 61 59 56 54 51 46 40 37 38 40 42 43 44 45 46 45 45 45 45 46 46 46 45 46 46 47 47 49 50 52 53 55 56 56 57 59 62 64 68 70 72 73
58 55 52 50 48 48 48 49 50 51 53 54 55 56 57 58 59 59 60 60 60 60 61 61 61 62 62 63 63 63 63 63 63 63 62 62 61 61 60 60 60 60 60 60 58 55 52 48 41 36 36 38 39 41 43 44 45 45 44 44 44 44 45 45 45 46 46 47 48 49 51 52 53 54 55 55 56 56 58 61 63 66 70 72 73
52 50 48 47 47 48 48 49 50 52 53 55 56 57 58 59 59 60 60 60 60 60 60 60 61 61 61 62 62 62 62 62 62 61 60 59 59 59 58 58 59 59 59 59 56 53 49 43 37 36 37 37 39 41 43 43 43 44 44 43 43 43 44 45 45 46 46 47 48 49 50 52 52 53 53 53 54 55 57 59 62 65 69 71 71
47 46 46 47 47 47 48 49 51 53 55 56 57 58 59 59 59 60 60 60 60 60 60 60 60 61 61 61 61 61 61 60 59 58 57 57 57 57 57 57 57 58 58 57 54 50 44 38 35 36 37 38 39 40 41 42 43 43 43 43 43 44 45 46 47 47 48 49 50 51 52 52 52 52 51 51 52 54 56 58 61 65 67 69 68
45 46 46 47 47 48 49 50 52 53 54 56 57 57 58 58 59 59 59 60 60 60 60 60 61 61 61 60 60 59 58 57 56 55 54 54 55 56 56 56 55 55 55 55 52 47 40 36 35 35 37 38 39 40 41 42 43 43 43 44 44 45 46 47 48 49 51 52 53 54 55 55 55 54 52 51 52 53 55 58 62 65 67 66 64
45 46 46 46 47 48 49 50 51 52 53 54 55 56 57 58 59 59 60 60 60 60 60 60 61 60 60 59 58 57 55 54 53 53 52 52 51 52 52 53 54 53 53 53 51 44 38 35 35 35 36 38 39 40 41 43 43 43 43 44 44 46 47 48 50 51 53 54 56 56 56 56 55 53 50 49 50 52 55 59 63 64 64 61 58
Wind_Direction
281 281 282 282 282 282 283 283 283 284 284 284 285 285 284 284 284 285 286 286 284 280 278 278 278 278 279 279 278 277 275 273 271 270 270 270 269 269 268 268 267 267 267 266 265 265 265 265 265 265 265 266 266 266 267 268 268 268 268 268 268 269 269 268 268 268 267 267 267 267 266 266 266 266 265 265 264 263 261 260 259 259 259 259 259
278 279 280 281 282 282 283 284 284 285 285 285 285 284 284 284 283 283 283 283 282 279 276 275 275 276 277 276 276 275 274 273 271 269 268 268 268 268 268 267 267 267 267 267 266 266 264 263 263 262 263 263 264 265 265 266 266 267 267 267 268 268 268 268 268 268 268 267 267 267 267 266 266 266 266 265 265 264 262 261 259 258 258 259 259
278 279 280 281 282 283 284 285 286 286 286 285 285 284 284 283 283 282 282 281 281 278 276 275 275 276 276 275 274 273 272 271 270 269 268 267 266 266 266 265 265 264 264 265 265 266 266 265 264 262 261 261 262 262 263 263 264 264 265 265 266 267 267 267 267 267 267 267 267 267 266 266 266 266 266 265 265 264 263 262 260 259 258 258 258
279 280 280 281 282 283 283 284 284 285 285 285 284 283 282 282 281 280 279 279 278 276 275 275 275 276 276 275 273 271 269 268 268 267 266 265 265 264 264 263 262 261 260 260 261 262 262 263 264 264 263 262 261 261 261 262 262 262 263 263 264 265 266 267 267 266 266 266 266 266 266 266 265 265 265 265 264 264 263 262 261 260 259 259 258
281 281 282 282 282 283 283 284 284 285 286 285 285 284 283 282 281 279 277 275 273 271 271 272 272 273 275 275 274 272 269 267 266 265 264 263 263 262 262 261 260 260 259 258 257 257 258 259 260 261 262 262 262 262 261 261 262 262 262 263 263 264 264 265 266 267 266 265 265 264 264 264 264 264 264 263 263 263 262 261 261 261 260 260 260
283 283 284 284 284 284 285 287 288 289 288 287 286 286 285 284 282 279 275 273 271 268 266 268 269 270 272 272 272 271 270 269 267 265 263 262 261 260 260 259 258 257 257 256 256 255 255 255 256 258 259 260 261 261 261 261 261 261 262 263 263 264 264 264 265 266 266 266 266 265 264 263 262 262 261 261 261 262 262 261 260 260 260 261 261
283 284 285 285 286 286 287 289 291 292 291 289 288 287 285 283 279 275 272 271 271 267 264 263 264 265 269 269 269 270 269 268 267 265 263 262 260 259 258 258 257 256 255 255 255 254 254 255 255 256 258 260 261 262 262 262 261 261 261 261 262 263 264 264 265 266 266 266 266 266 265 265 264 262 261 260 258 259 261 262 261 260 260 260 260
284 285 286 287 288 289 291 294 296 296 294 292 290 288 285 282 278 273 270 269 270 268 265 262 260 262 266 267 267 268 268 267 267 265 264 262 261 259 258 257 256 255 255 254 255 255 256 256 257 258 259 261 262 263 265 266 265 264 263 262 262 262 262 263 264 265 266 266 266 266 266 266 265 264 263 262 259 256 257 260 262 261 260 259 259
285 287 288 289 290 292 295 298 299 298 295 293 290 287 284 282 278 275 272 270 269 268 266 264 261 261 263 265 266 266 266 266 266 265 263 262 261 260 258 257 256 255 255 256 256 257 258 259 260 262 263 264 265 266 267 268 268 269 268 267 265 264 263 263 263 264 265 265 266 266 266 266 265 265 265 264 262 258 255 256 259 261 261 260 260
288 290 291 292 293 294 297 298 299 298 295 292 289 287 284 281 279 276 274 272 270 268 266 265 263 261 262 263 265 265 265 265 265 264 263 262 260 260 259 258 257 256 257 257 258 259 260 262 263 264 265 266 267 268 269 269 269 270 270 270 269 268 267 266 265 265 265 266 266 266 266 266 265 265 265 265 264 262 259 256 256 258 259 260 261
292 293 293 294 294 295 296 297 297 296 293 290 288 285 283 281 279 276 275 273 271 268 266 264 262 262 262 262 263 264 264 265 265 264 263 262 261 259 259 258 258 258 258 259 260 262 263 265 266 267 267 268 269 270 270 271 271 271 270 270 270 269 269 269 268 268 267 267 267 267 266 266 266 265 265 265 264 264 262 260 258 257 256 258 260
293 293 294 294 295 295 295 296 295 293 291 288 286 283 281 279 278 275 274 271 269 267 265 263 262 261 261 262 263 264 265 265 265 265 265 263 262 261 260 259 259 259 260 261 262 264 265 267 268 268 269 270 271 271 272 272 272 272 272 271 271 270 269 269 269 269 269 269 268 268 267 267 266 266 265 265 264 264 263 262 260 259 256 255 257
292 292 293 293 293 293 293 293 291 289 287 286 283 281 279 278 276 274 272 269 266 265 265 264 263 262 262 262 263 265 266 266 266 266 265 264 263 262 262 261 261 261 262 263 265 267 269 270 272 272 273 273 274 273 273 273 273 273 273 273 272 272 271 271 270 270 270 269 269 269 269 268 267 266 266 265 264 264 263 263 262 261 259 256 255
290 291 291 291 290 290 290 290 288 285 284 283 282 280 279 277 276 274 271 269 267 266 265 265 265 264 263 263 263 264 265 265 265 265 265 264 264 264 263 263 263 264 264 266 268 270 272 273 274 275 276 276 277 277 276 275 275 275 275 274 273 272 272 272 271 271 271 270 270 269 269 269 268 268 267 266 265 264 264 263 262 261 260 258 257
290 291 290 289 289 288 288 287 285 283 282 281 280 279 278 277 276 274 273 271 269 267 266 266 267 266 264 264 264 263 264 265 265 264 264 264 265 265 265 265 265 265 266 267 268 270 272 273 273 273 274 275 276 277 277 277 277 276 276 275 274 273 272 272 271 271 271 271 270 269 269 269 268 268 268 267 267 266 265 264 263 262 261 259 258
290 289 289 288 288 287 286 285 283 282 281 280 279 278 278 277 276 275 273 272 271 270 268 267 267 266 265 265 264 264 263 264 265 265 265 265 266 267 267 268 267 267 267 268 269 270 272 273 272 272 272 272 272 273 274 275 275 275 275 275 274 274 273 273 272 271 271 270 270 269 269 269 269 269 269 268 268 267 266 265 265 263 262 260 259
287 287 286 286 285 284 283 282 281 280 279 278 277 276 276 275 275 274 274 273 273 272 271 269 267 266 266 265 265 264 264 264 265 266 266 266 266 266 267 268 269 269 270 270 271 272 273 273 273 273 272 272 272 272 272 273 273 273 273 272 272 272 272 272 272 272 271 271 270 269 269 269 269 269 269 269 269 268 268 267 266 265 264 262 260
284 284 284 283 282 282 281 280 279 277 276 275 275 274 274 274 274 274 274 274 274 273 272 271 270 268 268 267 266 266 265 265 266 267 268 268 267 267 268 269 270 271 271 272 272 272 273 273 273 274 274 273 273 273 273 273 273 273 272 271 271 270 270 271 271 271 271 271 270 270 269 269 268 268 268 268 269 269 269 268 267 266 265 263 262
283 283 282 282 281 280 279 278 277 275 274 273 273 273 273 273 275 275 275 274 274 275 275 274 274 273 272 271 270 270 269 268 268 269 270 270 270 270 271 271 272 272 273 273 273 274 274 274 275 275 275 275 274 274 274 274 273 273 272 272 271 271 270 271 271 271 271 271 270 270 269 269 268 268 268 267 267 267 268 268 268 267 267 265 264
283 283 282 281 280 279 278 276 276 275 274 274 274 274 275 276 276 276 275 274 274 275 276 275 273 273 272 272 271 271 271 271 272 273 274 274 274 274 274 274 273 273 273 273 273 274 274 274 275 275 275 275 275 275 275 275 275 274 274 273 273 272 272 272 272 273 273 272 272 271 270 269 269 268 267 267 267 266 266 266 266 266 267 266 265
282 282 282 281 280 278 277 276 276 275 275 274 274 274 274 273 273 272 272 272 273 275 277 277 276 275 274 274 274 274 274 274 275 276 276 277 277 276 276 276 276 275 275 275 275 275 275 275 275 274 274 275 276 276 276 276 275 275 274 274 273 273 273 273 273 274 274 274 273 272 271 271 270 269 268 267 266 266 265 265 264 264 265 265 265
283 282 281 280 279 278 277 277 276 276 276 275 275 274 274 274 274 274 275 275 276 278 280 280 280 280 279 279 279 279 278 278 278 278 278 278 278 278 278 278 278 278 278 278 278 278 278 277 277 276 276 276 277 277 276 276 275 274 274 274 273 273 273 273 273 273 274 274 274 273 272 272 271 271 269 268 267 266 266 265 264 264 263 264 264
282 281 280 279 278 277 277 277 277 277 276 276 276 277 278 279 279 279 279 280 280 281 281 281 280 280 280 280 280 280 280 280 280 280 280 280 279 279 279 278 278 278 278 278 278 278 278 278 278 278 277 277 277 277 276 275 275 274 273 273 272 272 272 272 272 273 273 273 273 273 273 272 272 272 271 271 270 269 268 267 266 265 264 263 263
280 279 278 278 278 278 277 277 277 276 276 276 277 278 280 281 281 281 281 281 281 281 281 281 281 281 281 281 282 282 282 282 281 281 281 281 281 280 280 280 279 279 279 279 279 279 278 278 278 278 278 277 277 276 276 275 275 274 273 272 271 271 271 270 271 271 271 272 272 272 272 272 272 272 272 272 272 271 271 269 268 267 266 265 264
279 278 278 278 278 278 277 276 276 276 277 277 279 280 281 281 281 281 281 281 282 282 282 282 283 283 283 283 283 284 284 284 283 283 283 283 282 282 282 282 281 281 281 281 280 280 280 279 279 278 278 278 277 277 277 276 276 275 274 273 272 271 271 270 269 269 269 269 270 270 270 271 271 271 271 271 272 272 272 271 270 269 268 267 266
279 279 278 278 277 276 276 276 276 277 278 279 280 281 281 282 282 282 282 283 283 284 284 284 285 285 285 285 285 285 285 285 285 284 284 284 283 283 283 283 283 282 282 282 282 281 281 280 280 280 279 279 278 278 277 277 276 276 275 275 274 273 272 271 270 269 269 268 268 268 268 268 268 268 269 269 269 270 270 270 270 270 270 269 268
280 279 278 278 277 277 278 278 279 280 281 281 282 282 283 283 284 284 285 285 285 286 286 286 286 286 287 287 286 286 286 285 285 285 284 284 284 284 284 284 283 283 283 282 282 282 281 281 281 280 280 280 279 279 278 278 277 276 276 275 275 274 273 272 272 271 270 269 268 268 267 266 266 266 266 266 266 267 268 268 269 269 269 269 268
279 279 279 279 279 280 280 281 282 282 283 283 284 284 284 285 286 286 287 287 287 287 287 287 287 287 287 287 287 286 286 286 286 286 285 285 285 285 285 285 285 285 284 284 284 283 283 283 282 282 281 281 280 280 279 279 278 277 277 276 275 275 274 273 272 271 271 270 269 268 267 267 266 266 265 264 264 264 265 265 266 267 267 267 267
279 279 280 280 281 282 282 283 283 284 284 285 285 286 286 287 287 288 288 288 288 288 288 288 288 288 288 287 287 287 287 287 287 287 287 287 287 287 287 287 287 287 286 286 286 285 285 284 284 284 283 283 282 282 281 280 279 279 278 277 276 276 275 274 273 272 271 271 270 269 268 267 266 266 265 264 264 263 262 262 263 263 264 265 265
280 280 281 282 283 283 283 284 284 284 285 285 286 287 287 288 288 288 289 289 289 289 289 289 289 289 289 289 289 289 289 289 289 289 289 289 289 289 289 289 289 288 288 287 287 287 286 286 285 285 284 284 284 283 283 282 282 281 280 279 279 278 277 276 275 274 273 272 271 270 268 267 266 265 264 264 263 263 262 262 261 261 261 262 263
281 282 282 283 283 283 283 283 284 284 285 286 286 287 287 288 289 289 290 290 290 290 290 290 290 289 289 289 289 289 289 289 289 290 290 290 289 289 289 288 288 288 288 288 287 287 286 286 285 285 284 284 284 283 283 283 283 282 282 281 281 280 279 279 278 277 275 274 272 271 270 268 267 266 265 264 263 263 262 262 262 261 260 260 261
281 281 282 282 282 282 282 283 284 285 285 286 287 288 289 290 290 291 291 291 290 290 290 290 290 289 289 289 289 289 289 289 289 289 289 288 288 288 287 287 287 287 288 288 287 287 287 286 286 285 285 284 284 284 283 283 283 283 282 282 281 280 280 280 279 278 277 276 275 273 272 271 269 268 267 266 264 263 263 262 262 262 261 261 260
281 281 281 281 281 282 283 283 284 285 286 287 289 290 291 291 291 291 291 291 291 290 290 290 289 289 289 289 289 289 289 288 288 288 288 288 288 288 288 288 288 288 288 288 288 288 287 287 287 286 286 285 285 284 284 284 284 283 282 282 282 281 281 280 280 279 278 277 277 275 274 273 272 271 270 268 267 265 264 263 262 262 262 261 261
281 281 282 282 282 283 283 284 285 287 288 289 290 291 291 291 292 292 291 291 291 290 290 290 290 290 289 289 289 289 289 289 289 289 289 290 290 290 290 290 290 290 290 289 289 289 288 288 288 287 287 287 287 286 286 286 285 284 284 283 283 283 282 281 281 280 279 278 278 277 276 275 274 273 272 270 269 267 266 264 263 262 261 261 261
282 282 283 283 283 284 285 286 287 288 289 290 291 291 292 292 292 292 291 291 291 291 291 291 291 290 290 290 290 290 290 291 291 291 291 291 291 291 291 291 292 292 292 291 291 291 290 290 289 289 289 289 289 288 288 288 287 286 286 285 285 284 283 282 281 281 280 279 279 278 277 276 275 274 273 272 270 269 267 266 265 264 262 262 261
283 283 284 284 284 285 286 287 288 289 290 291 291 292 292 292 292 291 291 291 291 291 291 291 291 291 291 291 291 292 292 292 292 292 292 292 293 293 293 293 294 294 294 293 293 293 292 291 291 291 290 290 290 290 289 289 288 288 287 287 286 285 284 284 283 282 282 281 280 278 277 276 275 274 273 272 271 270 269 268 266 265 264 263 262
284 285 285 285 286 286 288 289 290 291 291 292 292 292 291 291 291 291 290 290 290 291 291 291 291 291 291 291 292 292 292 292 293 293 293 294 294 294 295 295 295 295 294 294 293 293 293 293 292 292 292 291 291 290 290 289 289 288 288 287 287 286 286 285 285 284 283 282 281 280 279 277 276 275 273 273 272 271 270 269 268 267 266 265 264
286 286 287 287 288 289 290 291 291 291 291 291 291 291 290 290 290 289 290 290 290 290 290 290 290 290 290 291 291 292 292 293 293 294 294 294 295 295 295 295 295 295 294 294 293 293 293 293 293 293 293 293 292 291 290 290 289 289 288 288 287 287 288 288 287 286 285 283 282 280 279 278 276 275 274 274 274 274 273 272 272 270 269 268 267
288 288 289 289 291 291 292 291 291 291 290 290 289 289 289 288 288 288 288 288 288 288 288 288 288 289 289 290 291 292 292 293 293 294 294 295 295 295 295 295 295 294 294 294 294 294 294 294 294 294 294 293 292 291 291 291 290 289 288 288 289 290 290 289 288 286 284 282 280 279 277 276 275 275 275 275 275 276 276 275 275 274 273 272 271
289 290 291 292 292 292 291 291 290 290 289 288 288 287 287 286 286 286 286 286 286 286 287 288 288 289 290 291 291 292 292 293 293 294 294 295 295 295 295 295 295 294 294 295 295 295 295 295 296 296 295 294 293 292 291 290 289 288 289 291 292 293 292 289 286 285 283 280 278 277 276 276 276 276 277 278 279 279 279 279 278 278 277 276 274
291 291 292 292 291 291 291 290 289 288 287 286 285 284 284 284 284 284 284 285 286 286 287 288 289 290 290 291 292 292 293 293 294 295 295 296 296 296 296 295 295 296 296 296 296 296 296 297 297 296 295 294 294 292 290 288 288 290 292 293 295 296 295 291 287 284 282 280 278 277 277 277 278 279 280 281 281 282 281 281 280 280 279 279 278
291 291 291 291 290 290 289 288 286 285 284 283 282 282 283 283 283 284 284 285 286 287 288 289 289 290 291 292 292 293 294 294 295 296 296 297 297 297 297 297 297 297 297 297 297 297 298 298 298 297 296 295 293 290 289 289 291 292 293 295 296 298 299 297 292 287 284 282 280 279 278 279 279 280 281 282 282 281 281 281 281 281 280 280 280
290 290 290 290 289 289 287 285 283 282 281 281 281 282 282 283 283 284 285 286 287 288 289 289 290 291 291 292 293 293 294 295 296 297 297 297 298 298 298 298 298 298 298 298 298 299 299 299 298 297 296 293 290 289 290 292 293 294 295 297 299 300 300 299 295 291 287 284 282 280 280 280 280 281 281 281 281 281 281 282 282 282 283 283 283
289 289 289 289 288 286 284 282 281 280 281 281 282 282 282 283 284 285 286 287 288 289 289 290 291 291 292 292 293 294 295 296 297 297 298 298 299 299 299 299 299 299 299 299 299 300 300 299 298 297 293 289 288 290 293 295 296 299 301 302 303 303 301 299 296 293 290 287 284 283 282 281 281 282 282 282 283 284 284 285 286 286 286 286 287
288 288 288 287 285 284 282 281 280 281 282 283 283 284 284 285 286 287 288 288 289 290 290 291 291 292 293 293 294 295 296 297 297 298 299 299 299 299 299 299 299 299 300 300 300 301 301 300 299 295 289 286 288 291 294 297 300 303 304 304 304 303 302 300 297 295 292 290 288 287 286 286 285 285 285 285 285 287 288 289 290 290 290 290 290
287 287 287 285 284 282 281 280 281 282 284 284 285 286 286 287 287 288 289 289 290 290 291 291 292 293 293 293 294 296 297 298 299 299 300 300 299 299 299 299 300 300 300 301 301 302 301 300 297 292 287 286 289 292 295 298 301 302 303 303 303 303 302 301 300 298 297 295 294 294 293 292 290 289 288 288 288 289 289 291 292 293 294 294 294
287 286 285 284 282 281 281 282 283 284 285 285 286 286 287 287 288 289 289 290 291 291 292 292 293 293 293 294 296 297 298 299 300 300 300 300 300 300 300 300 300 300 301 301 302 303 302 299 294 289 287 289 291 293 296 298 300 301 302 302 301 301 300 300 300 299 299 298 299 298 297 295 293 292 290 290 290 289 290 292 294 295 296 296 296
286 285 284 283 282 283 284 285 285 285 286 286 286 286 287 288 289 290 291 292 292 292 292 293 293 294 294 295 297 298 299 300 300 300 300 300 300 300 300 301 301 301 301 302 303 303 301 297 291 288 288 289 291 293 296 298 300 301 301 300 300 299 299 299 299 299 299 300 300 299 297 296 294 292 290 289 288 287 289 292 295 296 297 298 297
285 284 283 284 284 285 286 286 286 286 286 287 288 289 290 291 292 293 293 293 293 293 293 293 294 294 295 296 297 298 299 299 299 299 299 300 300 300 300 301 301 302 302 303 303 302 298 292 288 288 288 288 290 293 296 299 300 301 301 302 302 301 301 301 301 301 302 302 301 300 299 298 295 292 290 287 285 286 289 293 295 296 298 298 297
284 284 285 286 286 287 287 286 287 288 289 290 291 292 292 293 293 293 293 293 293 293 294 294 294 295 296 297 298 299 299 299 298 299 299 300 300 301 301 301 302 303 303 304 303 301 296 290 289 290 291 292 293 295 298 301 302 303 304 305 305 304 304 304 304 304 304 304 303 302 302 300 298 295 292 288 286 288 292 294 296 298 300 300 297
285 286 287 287 288 288 289 289 290 292 293 293 293 294 294 294 293 293 293 293 293 294 294 294 295 295 297 298 299 299 298 298 299 299 299 299 300 301 303 303 304 304 304 304 303 300 294 292 293 293 295 297 299 300 302 303 303 304 305 306 306 306 305 305 306 306 305 305 304 303 303 301 299 296 293 290 290 293 295 297 299 302 302 301 297
Height
5808 5808 5808 5807 5807 5806 5805 5805 5805 5804 5804 5803 5802 5802 5801 5800 5799 5798 5797 5796 5795 5794 5793 5792 5791 5790 5789 5788 5787 5787 5786 5786 5786 5785 5785 5784 5783 5783 5782 5781 5781 5780 5779 5779 5778 5778 5777 5777 5776 5776 5775 5774 5774 5773 5772 5772 5771 5771 5770 5770 5769 5769 5769 5770 5770 5769 5769 5770 5771 5771 5771 5772 5772 5773 5773 5773 5773 5772 5772 5772 5772 5771 5771 5770 5770
5805 5804 5804 5804 5803 5802 5802 5801 5801 5800 5799 5799 5798 5797 5796 5796 5795 5794 5793 5792 5791 5790 5789 5788 5787 5786 5785 5784 5783 5782 5781 5780 5779 5779 5779 5778 5778 5777 5777 5776 5775 5775 5774 5773 5772 5772 5772 5772 5771 5771 5770 5769 5769 5768 5767 5766 5765 5765 5764 5764 5763 5763 5763 5763 5763 5762 5762 5763 5763 5764 5765 5766 5766 5767 5768 5768 5767 5767 5767 5767 5766 5766 5766 5765 5765
5801 5800 5800 5799 5799 5798 5797 5797 5796 5795 5794 5794 5793 5792 5791 5791 5790 5789 5788 5787 5785 5784 5783 5782 5782 5781 5780 5779 5778 5777 5776 5775 5773 5772 5772 5771 5771 5771 5770 5770 5769 5769 5768 5767 5766 5766 5765 5765 5765 5765 5765 5764 5763 5763 5762 5761 5760 5759 5758 5757 5757 5757 5757 5757 5757 5756 5756 5755 5755 5756 5758 5759 5759 5760 5761 5762 5761 5761 5761 5761 5761 5761 5760 5760 5760
5796 5796 5795 5795 5794 5793 5793 5792 5791 5790 5789 5788 5787 5787 5786 5785 5784 5783 5782 5781 5780 5779 5778 5777 5776 5775 5775 5774 5773 5772 5771 5770 5768 5767 5766 5765 5764 5764 5763 5763 5762 5762 5761 5760 5760 5759 5758 5758 5758 5758 5758 5758 5758 5757 5756 5755 5754 5753 5752 5751 5751 5751 5750 5750 5750 5750 5749 5749 5748 5749 5749 5750 5752 5753 5753 5754 5754 5754 5754 5754 5755 5755 5755 5754 5755
5791 5790 5790 5789 5789 5788 5787 5787 5786 5785 5784 5783 5781 5780 5780 5779 5778 5777 5777 5776 5774 5773 5772 5771 5770 5770 5769 5769 5768 5767 5765 5764 5763 5762 5761 5759 5758 5757 5756 5756 5755 5754 5754 5754 5753 5752 5751 5751 5751 5750 5750 5750 5750 5750 5750 5750 5749 5748 5747 5746 5745 5745 5744 5744 5744 5743 5742 5742 5741 5741 5742 5742 5744 5744 5745 5746 5746 5746 5747 5747 5748 5749 5749 5749 5749
5786 5785 5784 5784 5783 5783 5782 5781 5780 5779 5778 5777 5775 5774 5773 5772 5771 5770 5770 5769 5768 5767 5766 5765 5764 5764 5763 5763 5762 5761 5760 5759 5758 5756 5755 5754 5753 5752 5751 5750 5749 5748 5748 5747 5746 5745 5745 5744 5744 5743 5743 5743 5742 5742 5742 5742 5742 5741 5741 5740 5739 5738 5738 5738 5737 5736 5735 5735 5734 5734 5734 5734 5735 5736 5736 5738 5739 5738 5738 5739 5740 5741 5742 5743 5743
5780 5780 5779 5778 5777 5776 5776 5775 5774 5773 5772 5771 5769 5768 5767 5766 5765 5764 5763 5762 5761 5760 5760 5759 5758 5757 5757 5756 5756 5755 5754 5753 5752 5750 5749 5748 5747 5746 5745 5744 5743 5742 5741 5740 5740 5739 5738 5737 5737 5736 5736 5735 5735 5735 5735 5735 5734 5734 5734 5733 5732 5732 5732 5732 5731 5730 5729 5729 5728 5727 5726 5726 5726 5727 5728 5729 5731 5732 5732 5731 5732 5733 5733 5735 5735
5774 5774 5773 5772 5771 5769 5768 5768 5767 5766 5765 5764 5763 5762 5761 5759 5759 5758 5757 5756 5755 5754 5753 5752 5751 5750 5750 5750 5749 5748 5748 5746 5746 5744 5743 5742 5741 5739 5739 5738 5737 5736 5735 5734 5733 5732 5731 5730 5730 5729 5729 5728 5728 5727 5727 5726 5726 5726 5726 5725 5725 5724 5724 5725 5724 5723 5722 5722 5720 5720 5719 5719 5718 5719 5719 5719 5721 5725 5727 5725 5724 5724 5725 5726 5727
5768 5767 5766 5765 5764 5762 5760 5759 5759 5759 5758 5757 5757 5755 5754 5753 5752 5751 5751 5750 5749 5748 5747 5746 5745 5744 5743 5743 5742 5741 5741 5740 5739 5738 5736 5735 5734 5733 5732 5731 5730 5729 5728 5727 5726 5725 5724 5724 5723 5722 5722 5721 5720 5720 5719 5719 5718 5717 5717 5717 5716 5716 5716 5716 5716 5715 5715 5714 5713 5712 5712 5711 5711 5710 5710 5711 5711 5714 5718 5720 5718 5716 5717 5719 5719
5761 5760 5758 5758 5757 5755 5754 5752 5751 5751 5751 5750 5749 5749 5747 5746 5746 5745 5744 5743 5742 5741 5740 5740 5739 5737 5736 5736 5735 5734 5733 5732 5732 5730 5729 5728 5727 5726 5725 5724 5722 5721 5721 5720 5719 5718 5717 5716 5715 5715 5714 5713 5713 5712 5711 5711 5710 5709 5709 5708 5708 5707 5707 5707 5707 5706 5706 5706 5705 5705 5704 5703 5703 5703 5702 5702 5702 5703 5707 5711 5712 5710 5710 5712 5711
5753 5752 5751 5750 5750 5749 5748 5746 5745 5744 5744 5743 5742 5741 5740 5739 5739 5738 5737 5736 5735 5734 5733 5732 5731 5730 5729 5728 5727 5726 5726 5725 5724 5723 5722 5721 5720 5719 5717 5716 5715 5714 5713 5712 5711 5710 5709 5708 5708 5706 5706 5705 5704 5704 5703 5702 5702 5701 5700 5699 5699 5698 5698 5697 5697 5696 5696 5696 5696 5695 5696 5695 5695 5695 5694 5693 5693 5694 5695 5699 5702 5703 5704 5706 5705
5746 5745 5744 5743 5742 5742 5741 5740 5738 5736 5736 5735 5735 5734 5733 5732 5732 5731 5730 5728 5727 5726 5725 5724 5723 5722 5721 5720 5719 5718 5718 5717 5717 5716 5715 5714 5712 5711 5710 5708 5707 5706 5705 5704 5702 5701 5701 5700 5699 5698 5697 5696 5695 5694 5693 5693 5692 5691 5690 5690 5689 5689 5688 5688 5687 5687 5686 5686 5686 5685 5686 5686 5685 5685 5685 5684 5684 5684 5685 5688 5691 5692 5695 5699 5698
5741 5740 5739 5737 5735 5735 5734 5733 5732 5730 5728 5727 5727 5726 5725 5725 5724 5723 5722 5720 5719 5718 5717 5716 5715 5714 5713 5712 5711 5710 5710 5709 5709 5708 5707 5705 5704 5703 5701 5700 5698 5697 5696 5695 5694 5692 5691 5690 5688 5687 5686 5685 5685 5684 5683 5683 5682 5681 5680 5680 5679 5678 5678 5677 5677 5677 5677 5676 5676 5676 5675 5675 5675 5675 5675 5675 5675 5675 5675 5677 5679 5680 5684 5689 5690
5736 5734 5733 5732 5729 5728 5726 5725 5724 5723 5721 5720 5719 5718 5717 5716 5715 5714 5713 5712 5711 5710 5709 5708 5707 5706 5705 5704 5703 5702 5701 5701 5700 5698 5697 5696 5695 5693 5692 5690 5689 5688 5687 5685 5684 5683 5682 5680 5679 5677 5676 5674 5673 5673 5672 5671 5671 5670 5669 5669 5669 5668 5668 5667 5667 5666 5666 5666 5666 5666 5665 5665 5664 5664 5664 5665 5665 5665 5666 5666 5667 5668 5672 5676 5679
5729 5727 5726 5724 5722 5720 5719 5717 5716 5715 5713 5712 5711 5710 5709 5707 5706 5705 5704 5703 5703 5702 5701 5700 5699 5698 5697 5695 5695 5693 5692 5691 5690 5689 5688 5686 5685 5684 5682 5681 5679 5678 5676 5675 5674 5673 5672 5671 5670 5669 5667 5666 5664 5663 5661 5660 5659 5658 5658 5658 5658 5657 5657 5656 5657 5656 5656 5656 5656 5656 5656 5655 5654 5654 5654 5654 5654 5654 5655 5655 5655 5657 5660 5663 5667
5722 5720 5718 5716 5714 5712 5711 5709 5708 5707 5706 5704 5703 5701 5700 5698 5697 5696 5695 5695 5694 5693 5693 5692 5691 5690 5688 5687 5685 5684 5683 5682 5681 5680 5678 5677 5676 5674 5673 5671 5669 5668 5667 5665 5665 5664 5663 5662 5660 5659 5658 5657 5655 5654 5652 5651 5650 5648 5647 5646 5646 5646 5645 5645 5645 5645 5645 5645 5645 5645 5645 5645 5644 5644 5643 5643 5643 5643 5644 5644 5644 5645 5646 5650 5654
5714 5712 5710 5708 5707 5705 5703 5702 5701 5700 5698 5697 5695 5693 5691 5689 5688 5687 5687 5686 5686 5685 5684 5683 5682 5681 5680 5678 5676 5675 5674 5672 5672 5670 5669 5668 5666 5665 5663 5661 5660 5658 5657 5656 5654 5653 5652 5651 5650 5649 5648 5647 5645 5644 5642 5641 5639 5638 5637 5636 5635 5635 5635 5634 5634 5634 5634 5634 5635 5634 5634 5634 5633 5633 5633 5633 5633 5633 5633 5633 5634 5634 5633 5636 5640
5706 5705 5703 5701 5699 5698 5696 5695 5694 5692 5690 5689 5687 5685 5682 5681 5680 5679 5679 5678 5677 5676 5675 5674 5673 5672 5671 5669 5668 5666 5665 5663 5662 5660 5659 5658 5656 5654 5653 5651 5650 5648 5647 5646 5645 5644 5642 5641 5640 5639 5637 5636 5635 5633 5632 5630 5629 5627 5625 5624 5624 5624 5624 5623 5623 5623 5623 5623 5624 5624 5624 5624 5623 5623 5623 5623 5623 5623 5623 5623 5623 5623 5622 5624 5626
5699 5697 5695 5693 5692 5690 5688 5687 5685 5683 5681 5680 5678 5676 5674 5673 5672 5671 5670 5669 5668 5667 5666 5665 5664 5662 5661 5659 5657 5656 5654 5653 5651 5650 5649 5647 5646 5644 5643 5641 5639 5638 5637 5635 5634 5633 5632 5630 5629 5627 5625 5624 5622 5621 5620 5619 5617 5616 5614 5612 5611 5611 5612 5612 5611 5611 5611 5611 5612 5613 5613 5612 5611 5612 5612 5612 5612 5612 5612 5612 5612 5612 5611 5612 5613
5691 5689 5687 5686 5684 5682 5680 5678 5676 5674 5672 5670 5668 5667 5665 5664 5663 5662 5661 5660 5659 5658 5657 5656 5655 5653 5651 5649 5647 5645 5644 5642 5641 5639 5638 5637 5635 5634 5632 5631 5629 5628 5627 5625 5624 5623 5622 5620 5618 5616 5614 5612 5610 5608 5606 5606 5605 5603 5602 5601 5599 5598 5598 5599 5598 5598 5598 5598 5599 5601 5601 5600 5599 5600 5601 5601 5601 5601 5601 5601 5601 5601 5601 5600 5601
5682 5681 5679 5677 5675 5673 5671 5669 5667 5665 5663 5661 5660 5658 5657 5655 5654 5654 5653 5652 5650 5649 5647 5646 5644 5643 5641 5639 5637 5636 5634 5632 5630 5629 5627 5625 5624 5623 5621 5620 5618 5617 5616 5615 5613 5612 5610 5609 5607 5605 5603 5601 5599 5596 5594 5593 5592 5590 5589 5588 5587 5586 5586 5586 5585 5586 5585 5584 5585 5587 5588 5588 5586 5587 5589 5589 5589 5589 5588 5589 5589 5589 5590 5589 5589
5674 5672 5670 5668 5667 5664 5662 5660 5658 5656 5654 5653 5651 5649 5648 5647 5647 5646 5645 5644 5641 5639 5637 5635 5633 5632 5630 5628 5626 5625 5623 5621 5620 5618 5616 5614 5613 5612 5610 5608 5607 5605 5603 5602 5600 5599 5597 5595 5594 5592 5590 5588 5586 5584 5582 5580 5579 5578 5577 5576 5574 5573 5573 5573 5573 5573 5573 5571 5571 5573 5574 5574 5571 5572 5575 5576 5575 5575 5574 5576 5577 5576 5578 5578 5577
5666 5664 5662 5660 5658 5656 5654 5652 5650 5647 5646 5644 5642 5641 5640 5639 5638 5637 5636 5634 5631 5629 5627 5625 5623 5621 5619 5617 5616 5614 5612 5611 5608 5606 5604 5602 5601 5600 5598 5597 5595 5593 5591 5589 5587 5585 5583 5581 5579 5577 5575 5573 5571 5569 5567 5566 5565 5564 5564 5564 5562 5560 5560 5560 5559 5560 5559 5558 5558 5559 5560 5559 5556 5557 5560 5560 5560 5560 5560 5561 5563 5563 5564 5566 5565
5658 5656 5654 5652 5650 5648 5646 5644 5641 5639 5638 5636 5635 5633 5631 5630 5629 5628 5626 5624 5621 5618 5616 5614 5612 5610 5608 5606 5604 5603 5601 5599 5597 5594 5592 5590 5588 5586 5585 5583 5582 5580 5578 5575 5573 5571 5569 5567 5565 5562 5560 5558 5555 5553 5552 5550 5549 5549 5548 5549 5548 5547 5547 5547 5546 5546 5546 5545 5544 5545 5546 5545 5542 5542 5545 5545 5543 5543 5544 5544 5547 5549 5549 5551 5551
5650 5648 5646 5644 5643 5641 5638 5635 5633 5631 5630 5629 5627 5625 5623 5622 5620 5618 5616 5613 5610 5608 5605 5603 5600 5598 5596 5594 5593 5591 5589 5586 5584 5581 5579 5577 5575 5573 5571 5569 5567 5565 5563 5560 5557 5555 5553 5551 5549 5547 5545 5542 5540 5538 5536 5535 5534 5532 5531 5532 5532 5532 5532 5532 5533 5533 5532 5531 5530 5531 5532 5530 5528 5528 5530 5530 5528 5527 5527 5527 5529 5532 5532 5533 5535
5641 5640 5638 5637 5635 5632 5630 5627 5625 5624 5622 5621 5619 5616 5614 5612 5610 5607 5605 5603 5600 5597 5594 5592 5589 5587 5585 5583 5581 5579 5577 5574 5571 5568 5566 5564 5561 5559 5557 5555 5552 5550 5548 5545 5542 5540 5537 5535 5533 5531 5529 5527 5524 5522 5520 5519 5518 5515 5515 5515 5515 5515 5516 5516 5517 5517 5517 5517 5516 5516 5517 5515 5513 5513 5515 5515 5514 5512 5512 5512 5512 5515 5515 5515 5516
5633 5631 5629 5628 5626 5623 5621 5619 5617 5615 5613 5611 5609 5606 5604 5601 5599 5597 5594 5592 5589 5586 5584 5581 5578 5576 5573 5572 5570 5567 5564 5561 5558 5555 5553 5550 5548 5546 5543 5540 5538 5535 5533 5531 5528 5525 5522 5520 5518 5515 5513 5511 5508 5506 5504 5503 5501 5499 5498 5498 5498 5498 5499 5499 5499 5500 5500 5500 5500 5500 5500 5499 5498 5497 5498 5499 5499 5498 5497 5497 5497 5498 5499 5498 5498
5624 5621 5619 5618 5617 5615 5613 5610 5608 5606 5603 5601 5598 5595 5593 5591 5589 5586 5584 5581 5578 5575 5573 5570 5568 5565 5562 5560 5557 5554 5551 5548 5545 5542 5539 5537 5534 5532 5529 5526 5523 5521 5518 5515 5513 5510 5508 5505 5503 5500 5498 5495 5493 5491 5489 5486 5484 5482 5481 5481 5482 5481 5481 5481 5482 5482 5482 5482 5482 5482 5482 5482 5481 5480 5481 5482 5482 5482 5481 5481 5483 5483 5482 5481 5482
5615 5612 5611 5610 5608 5606 5604 5601 5599 5596 5593 5590 5588 5585 5583 5581 5578 5576 5573 5570 5567 5564 5562 5559 5557 5554 5551 5547 5544 5541 5538 5534 5531 5528 5526 5523 5521 5518 5515 5512 5509 5506 5503 5500 5498 5495 5493 5492 5489 5486 5484 5481 5479 5476 5474 5471 5468 5467 5466 5465 5466 5465 5464 5464 5464 5465 5465 5464 5464 5464 5464 5464 5464 5463 5463 5463 5463 5463 5462 5463 5467 5468 5465 5465 5467
5606 5604 5603 5601 5599 5597 5595 5592 5589 5587 5583 5581 5578 5575 5573 5571 5568 5566 5563 5560 5557 5554 5551 5548 5545 5542 5538 5535 5531 5528 5525 5521 5518 5516 5513 5510 5508 5505 5502 5499 5496 5493 5491 5488 5486 5483 5481 5479 5477 5475 5472 5469 5466 5464 5461 5457 5454 5452 5451 5450 5450 5450 5449 5448 5448 5448 5448 5448 5447 5446 5446 5446 5445 5445 5445 5445 5444 5445 5445 5445 5448 5450 5449 5449 5451
5599 5597 5595 5593 5590 5588 5585 5583 5580 5577 5575 5572 5569 5566 5563 5561 5558 5555 5552 5549 5546 5543 5540 5536 5533 5530 5526 5523 5519 5516 5513 5510 5507 5505 5502 5500 5497 5494 5492 5489 5487 5484 5481 5479 5476 5473 5471 5468 5466 5465 5462 5459 5456 5453 5450 5447 5444 5441 5438 5436 5436 5436 5435 5433 5432 5431 5431 5431 5430 5429 5429 5428 5428 5428 5427 5427 5428 5428 5429 5428 5429 5431 5433 5434 5435
5592 5590 5587 5584 5582 5579 5576 5574 5572 5569 5566 5562 5559 5556 5553 5551 5548 5544 5541 5538 5534 5531 5528 5525 5521 5518 5515 5511 5508 5505 5502 5500 5497 5495 5493 5490 5488 5485 5483 5480 5478 5475 5473 5470 5467 5464 5461 5458 5456 5454 5452 5449 5447 5443 5439 5436 5434 5430 5426 5423 5423 5423 5422 5420 5419 5416 5414 5414 5413 5413 5413 5413 5413 5412 5411 5411 5412 5413 5414 5414 5413 5414 5416 5417 5419
5584 5582 5579 5576 5573 5571 5568 5566 5563 5559 5556 5552 5549 5546 5542 5539 5536 5533 5530 5527 5523 5520 5516 5513 5510 5507 5504 5501 5498 5495 5493 5490 5488 5486 5483 5481 5479 5476 5474 5471 5469 5467 5464 5461 5458 5455 5452 5449 5446 5444 5442 5439 5436 5433 5429 5425 5423 5420 5416 5412 5411 5410 5409 5408 5406 5403 5401 5400 5398 5397 5398 5399 5398 5397 5396 5395 5396 5397 5398 5398 5398 5399 5400 5401 5402
5576 5573 5571 5568 5565 5562 5559 5556 5553 5549 5546 5542 5538 5535 5532 5529 5525 5522 5519 5515 5511 5508 5504 5501 5498 5495 5493 5490 5488 5486 5483 5481 5479 5477 5474 5472 5469 5467 5464 5461 5459 5457 5454 5452 5448 5445 5442 5439 5436 5433 5431 5429 5426 5422 5418 5415 5411 5408 5405 5402 5400 5399 5398 5396 5394 5391 5389 5388 5386 5384 5384 5385 5384 5382 5381 5381 5380 5381 5382 5382 5383 5384 5386 5387 5388
5567 5564 5562 5559 5556 5553 5549 5546 5543 5539 5536 5532 5528 5524 5521 5518 5514 5511 5507 5504 5500 5496 5493 5490 5488 5485 5482 5480 5478 5476 5474 5472 5470 5468 5465 5463 5460 5458 5455 5452 5449 5447 5443 5441 5438 5435 5432 5429 5425 5423 5420 5419 5415 5411 5407 5404 5400 5397 5394 5391 5389 5387 5386 5384 5382 5380 5378 5376 5374 5372 5371 5371 5370 5369 5368 5367 5366 5365 5366 5367 5369 5370 5371 5373 5374
5557 5554 5552 5549 5546 5543 5540 5536 5533 5529 5525 5521 5517 5514 5510 5506 5503 5499 5496 5493 5490 5487 5484 5481 5478 5475 5473 5471 5469 5468 5466 5464 5461 5459 5456 5454 5451 5448 5445 5442 5439 5436 5433 5430 5427 5424 5421 5418 5415 5412 5410 5409 5405 5400 5396 5393 5389 5386 5382 5380 5378 5376 5374 5373 5371 5369 5366 5364 5362 5360 5359 5358 5358 5357 5355 5353 5352 5351 5352 5354 5355 5356 5357 5359 5362
5547 5545 5542 5539 5536 5533 5530 5526 5522 5518 5514 5510 5506 5503 5499 5496 5492 5489 5486 5484 5481 5478 5475 5473 5470 5467 5465 5463 5461 5460 5458 5455 5453 5450 5447 5444 5441 5438 5435 5432 5429 5426 5423 5420 5417 5414 5411 5408 5405 5402 5399 5398 5395 5390 5385 5383 5379 5375 5371 5369 5367 5365 5363 5362 5360 5357 5355 5353 5351 5349 5348 5347 5347 5346 5344 5342 5340 5338 5340 5341 5341 5342 5344 5345 5348
5536 5534 5531 5528 5525 5523 5519 5515 5512 5507 5503 5499 5495 5492 5489 5486 5483 5480 5478 5475 5473 5471 5468 5466 5463 5460 5458 5456 5454 5452 5449 5447 5444 5441 5438 5436 5432 5429 5426 5422 5419 5417 5414 5410 5408 5405 5402 5399 5396 5393 5389 5387 5385 5380 5375 5373 5369 5364 5361 5359 5357 5355 5354 5352 5350 5347 5345 5344 5342 5340 5338 5337 5337 5336 5334 5333 5330 5329 5329 5330 5329 5330 5332 5333 5334
5526 5523 5520 5517 5514 5511 5508 5504 5500 5496 5492 5489 5485 5482 5479 5477 5475 5472 5470 5468 5466 5463 5461 5459 5456 5453 5451 5449 5446 5444 5441 5439 5436 5433 5430 5427 5423 5420 5417 5413 5410 5407 5405 5402 5399 5396 5394 5390 5386 5383 5379 5376 5374 5371 5366 5363 5360 5356 5352 5350 5348 5347 5345 5343 5340 5339 5338 5336 5334 5332 5330 5329 5329 5328 5327 5325 5322 5320 5320 5320 5319 5319 5320 5322 5320
5515 5512 5509 5506 5503 5500 5496 5492 5489 5485 5482 5479 5476 5473 5471 5469 5467 5465 5463 5461 5459 5457 5454 5451 5449 5446 5443 5441 5439 5436 5433 5430 5428 5425 5422 5418 5414 5411 5408 5405 5401 5398 5396 5393 5390 5387 5385 5382 5377 5374 5370 5366 5363 5361 5358 5354 5352 5348 5345 5343 5341 5339 5337 5334 5332 5331 5330 5328 5326 5325 5323 5322 5321 5320 5319 5317 5314 5312 5310 5309 5308 5307 5308 5309 5306
5505 5502 5499 5496 5492 5489 5485 5482 5478 5475 5472 5469 5467 5465 5463 5461 5459 5458 5456 5454 5452 5449 5447 5444 5441 5438 5435 5433 5430 5427 5425 5422 5419 5416 5413 5409 5405 5402 5399 5396 5393 5390 5387 5384 5381 5378 5376 5373 5369 5365 5361 5357 5353 5352 5350 5346 5344 5341 5338 5336 5334 5332 5329 5326 5325 5323 5322 5321 5319 5317 5316 5314 5312 5311 5310 5308 5306 5303 5299 5298 5297 5296 5296 5294 5291
5495 5492 5489 5485 5482 5479 5475 5471 5468 5465 5463 5461 5459 5457 5455 5453 5452 5450 5448 5446 5444 5442 5439 5437 5434 5431 5428 5425 5422 5419 5416 5413 5410 5407 5404 5401 5397 5393 5390 5386 5383 5380 5377 5374 5371 5369 5366 5364 5361 5356 5352 5349 5345 5343 5341 5339 5336 5334 5332 5329 5326 5324 5321 5319 5318 5316 5314 5313 5311 5310 5308 5306 5304 5303 5301 5299 5297 5294 5290 5287 5286 5284 5283 5281 5277
5485 5482 5479 5475 5472 5469 5466 5462 5460 5457 5455 5453 5451 5449 5448 5446 5444 5443 5441 5439 5437 5434 5432 5429 5426 5423 5420 5417 5414 5411 5407 5404 5401 5398 5395 5392 5388 5384 5381 5377 5373 5371 5368 5365 5362 5360 5357 5355 5352 5349 5345 5341 5338 5336 5333 5331 5329 5327 5325 5322 5319 5317 5314 5311 5310 5308 5306 5305 5303 5301 5300 5298 5296 5295 5293 5290 5287 5284 5280 5278 5275 5272 5270 5268 5263
5475 5471 5469 5466 5463 5460 5457 5454 5452 5449 5447 5446 5444 5442 5441 5439 5437 5435 5433 5431 5429 5426 5424 5421 5418 5415 5412 5409 5406 5403 5399 5396 5393 5389 5387 5383 5380 5376 5372 5368 5364 5361 5359 5356 5354 5351 5348 5346 5344 5342 5339 5335 5332 5329 5326 5323 5321 5320 5317 5314 5312 5309 5307 5304 5302 5301 5299 5296 5294 5293 5291 5289 5288 5286 5284 5281 5278 5274 5270 5267 5264 5261 5258 5255 5251
5464 5461 5459 5457 5454 5452 5449 5446 5444 5442 5440 5438 5436 5434 5433 5431 5429 5428 5426 5424 5421 5418 5416 5413 5410 5407 5404 5401 5398 5395 5391 5388 5384 5381 5378 5375 5371 5368 5364 5360 5356 5353 5350 5348 5345 5343 5340 5338 5336 5334 5332 5329 5326 5323 5320 5317 5315 5314 5311 5308 5305 5303 5300 5297 5295 5293 5291 5288 5286 5285 5283 5281 5279 5276 5274 5271 5268 5264 5260 5256 5253 5249 5245 5242 5238
5454 5452 5450 5448 5446 5444 5441 5438 5437 5434 5432 5431 5428 5426 5425 5423 5421 5420 5418 5416 5413 5410 5408 5405 5402 5399 5396 5393 5391 5387 5383 5380 5376 5373 5369 5366 5362 5359 5356 5352 5348 5345 5342 5339 5337 5335 5332 5330 5328 5327 5325 5323 5320 5317 5314 5312 5310 5308 5305 5302 5300 5296 5293 5290 5287 5285 5282 5280 5278 5276 5274 5272 5270 5266 5263 5261 5258 5255 5251 5247 5243 5238 5233 5229 5224
5445 5444 5442 5439 5438 5435 5433 5431 5429 5427 5425 5423 5421 5419 5417 5416 5414 5412 5410 5408 5405 5402 5400 5397 5393 5391 5388 5385 5382 5379 5375 5372 5368 5364 5361 5358 5354 5351 5348 5345 5341 5337 5335 5332 5329 5327 5325 5322 5321 5320 5318 5316 5314 5311 5309 5307 5304 5302 5300 5297 5294 5291 5287 5284 5281 5278 5275 5273 5271 5268 5265 5262 5260 5257 5253 5251 5248 5245 5241 5238 5234 5228 5222 5217 5212
5437 5436 5434 5432 5430 5428 5426 5425 5422 5420 5418 5416 5414 5412 5410 5408 5407 5405 5402 5399 5397 5394 5392 5388 5385 5383 5380 5377 5374 5371 5368 5364 5361 5357 5354 5350 5346 5343 5340 5337 5333 5330 5327 5325 5322 5320 5318 5316 5315 5313 5312 5310 5308 5305 5303 5301 5299 5296 5293 5290 5288 5285 5281 5277 5274 5271 5269 5267 5264 5261 5257 5254 5251 5247 5244 5242 5239 5236 5233 5229 5225 5219 5212 5206 5200
5430 5428 5426 5425 5423 5421 5420 5418 5415 5413 5411 5409 5406 5404 5402 5401 5399 5396 5394 5391 5388 5386 5383 5380 5377 5375 5372 5369 5367 5363 5360 5357 5354 5350 5347 5343 5339 5336 5333 5331 5327 5322 5319 5317 5315 5313 5311 5310 5308 5307 5305 5304 5302 5299 5297 5294 5292 5289 5286 5283 5280 5276 5273 5269 5266 5264 5261 5259 5256 5252 5249 5246 5243 5239 5237 5234 5231 5228 5225 5221 5216 5209 5203 5197 5190
5423 5422 5420 5418 5417 5415 5413 5411 5409 5406 5404 5401 5399 5397 5395 5393 5391 5388 5386 5383 5380 5378 5375 5372 5369 5367 5364 5362 5359 5356 5353 5350 5347 5344 5341 5338 5334 5329 5325 5323 5321 5317 5313 5310 5308 5306 5305 5303 5302 5300 5298 5296 5294 5292 5290 5287 5284 5282 5278 5275 5272 5268 5264 5261 5258 5255 5253 5250 5246 5243 5240 5237 5233 5231 5228 5225 5222 5219 5216 5211 5206 5200 5193 5186 5180
5416 5415 5414 5412 5410 5408 5406 5404 5402 5399 5397 5394 5392 5389 5387 5385 5382 5379 5377 5374 5372 5370 5367 5364 5361 5358 5356 5354 5351 5348 5345 5342 5339 5337 5334 5332 5329 5325 5319 5315 5313 5311 5308 5304 5301 5300 5299 5297 5295 5294 5292 5290 5287 5285 5283 5280 5277 5274 5271 5268 5265 5261 5257 5254 5251 5248 5245 5241 5237 5234 5231 5227 5223 5221 5218 5215 5213 5210 5206 5200 5195 5190 5184 5176 5170